{"data":{"norad_id":63700,"intl_designator":"2025-087D","name":"STARLINK-33908","alt_names":[],"object_type":"PAYLOAD","status":"ACTIVE","operator":null,"country":"US","launch_date":"2025-04-28","launch_site_code":"AFWTR","launch_vehicle":null,"mission":null,"orbit_class":"UNKNOWN","rcs_meters":null,"size_class":null,"mass_kg":null,"dimensions":null,"purposes":["comms"],"wikipedia_slug":null,"has_3d_model":false,"image_url":null,"decayed_at":null,"tle_current":{"epoch":"2026-09-20T13:03:40.696992Z","epoch_age_seconds":148829,"freshness":"FRESH","line1":"1 63700U 25087D   26263.54422103  .00016188  00000+0  48889-3 0  9991","line2":"2 63700  53.1598  33.7062 0001750  82.1030 278.0172 15.34420539 79040","mean_motion":15.34420539,"eccentricity":0.000175,"inclination_deg":53.1598,"raan_deg":33.7062,"arg_perigee_deg":82.103,"mean_anomaly_deg":278.0172,"bstar":0.00048889,"rev_number":7904,"period_min":93.84650188132,"perigee_km":461.44505829259,"apogee_km":463.83933101072,"semimajor_km":6840.7791946517,"source":"CELESTRAK","updated_at":"2026-09-21T09:00:35.062583Z"}}}